[[{"header":{"parameterUnit":"m.s-1","parameterCategory":1,"la1":30.2991,"la2":30.254,"lo1":-89.0895,"lo2":-89.0444,"dy":0.0017,"dx":0.0017,"nx":28,"ny":28,"refTime":"2023-07-28T21:00:00:Z","depth":0,"parameterNumber":2,"parameterNumberName":"U-component_of_WINDS"},"data":[0,0,0,0,0,0,0,0,0,0,0,0,0,0,0,0,0,0,0,0,0,0,0,0,0,0,0,0,0,0,0,0,0,0,0,0,0,0,0,0,0,0,0,0,0,0,0,0,0,0,0,0,0,0,0,0,0,0,1.2992,1.2993,0,1.3117,1.3119,1.312,1.3091,1.3088,1.3086,1.3084,1.322,1.3226,1.3232,0,0,0,0,0,0,0,0,0,0,0,0,0,1.2736,1.2741,1.2992,1.2994,1.2995,1.3117,1.3119,1.312,1.3091,1.3088,1.3085,1.3082,1.3218,1.3225,1.3232,0,0,0,0,0,0,0,0,0,0,0,0,0,1.2853,1.2742,1.2992,1.2995,1.2996,1.3117,1.3119,1.3121,1.3092,1.3088,1.3084,1.3081,1.3216,1.3224,1.3233,1.336,0,0,1.326,1.3264,0,0,0,0,0,0,0,0,1.2846,1.2862,1.2993,1.2995,1.2997,1.3084,1.3078,1.3202,1.3093,1.3056,1.3083,1.3079,1.3178,1.319,1.3222,1.3367,1.3373,1.3261,1.3266,1.327,1.3273,0,0,0,0,0,0,0,1.2838,1.2857,1.3042,1.2995,1.2997,1.2993,1.3006,1.3102,1.3136,1.3059,1.3057,1.3072,1.3179,1.3213,1.3225,1.3375,1.3261,1.3269,1.3274,1.3277,1.3634,1.3638,0,0,0,0,0,0,1.2827,1.285,1.3038,1.3045,1.2911,1.3,1.3015,1.306,1.3135,1.3143,1.3075,1.307,1.32,1.3215,1.323,1.3386,1.327,1.3278,1.3283,1.363,1.3635,1.3639,0,0,0,0,0,0,1.2822,1.2844,1.3033,1.2947,1.2971,1.3009,1.306,1.3065,1.3099,1.3147,1.3154,1.3103,1.3198,1.3217,1.3328,1.3391,1.3282,1.329,1.3625,1.3631,1.3637,1.3699,0,0,0,0,0,0,1.2815,1.2843,1.2889,1.2949,1.2976,1.3127,1.3064,1.307,1.3113,1.3108,1.3175,1.3183,1.3196,1.3315,1.3337,1.3401,1.3297,1.362,1.3628,1.3635,1.3692,1.3707,1.372,0,0,0,0,0,1.2806,1.2903,1.2892,1.2915,1.3034,1.3131,1.3146,1.3157,1.3118,1.3168,1.3198,1.3181,1.3379,1.3327,1.3351,1.3419,1.3616,1.3625,1.3635,1.3686,1.3704,1.372,0,0,0,0,0,0,1.2853,1.2911,1.2899,1.3018,1.3069,1.3125,1.3188,1.3176,1.3242,1.3234,1.3247,1.3263,1.3377,1.3408,1.3349,1.3547,1.3492,1.3507,1.3523,1.3541,1.3554,1.3547,1.3305,0,0,0,0,0,1.2876,1.2947,1.2995,1.3095,1.3121,1.315,1.3192,1.3196,1.3251,1.3273,1.3312,1.3369,1.3444,1.3494,1.3565,1.3695,1.3712,1.3754,1.3768,1.3779,1.3793,1.3867,1.3888,1.367,1.367,1.367,0,0,1.2927,1.2968,1.3012,1.3106,1.3146,1.3222,1.3169,1.3251,1.3308,1.3287,1.3394,1.3425,1.3489,1.3611,1.3666,1.3641,1.3856,1.3791,1.3799,1.3807,1.3879,1.39,1.3918,1.3677,1.3675,1.3674,0,0,1.306,1.3095,1.3184,1.3225,1.3286,1.3304,1.3326,1.3384,1.3403,1.351,1.3496,1.3566,1.3694,1.3741,1.3782,1.3932,1.392,1.3955,1.4029,1.4102,1.4119,1.4134,1.4192,1.4212,1.3968,1.3968,1.3968,0,1.3116,1.3227,1.3232,1.3316,1.336,1.334,1.3433,1.3473,1.3555,1.3587,1.3555,1.3717,1.3759,1.3893,1.393,1.3962,1.399,1.3949,1.4115,1.4131,1.4146,1.4201,1.4222,1.3972,1.3972,1.3971,1.3971,0,1.3296,1.3373,1.3438,1.3516,1.3566,1.3654,1.3675,1.3726,1.3725,1.3748,1.3859,1.3908,1.399,1.4021,1.4022,1.4157,1.4139,1.4111,1.4058,1.417,1.4223,1.4243,1.3978,1.3976,1.3975,1.3974,0,0,1.3464,1.3542,1.3567,1.3603,1.3668,1.373,1.3818,1.3896,1.3941,1.3998,1.4075,1.4184,1.4159,1.4205,1.421,1.4274,1.4394,1.4239,1.424,1.4269,1.455,1.4574,1.4598,1.4385,1.4389,1.4392,1.4546,0,1.3605,1.3757,1.3765,1.3905,1.3979,1.3961,1.4038,1.4089,1.4112,1.418,1.4207,1.4285,1.4244,1.4273,1.4334,1.4366,1.4452,1.4355,1.4461,1.4464,1.4449,1.4624,1.4649,1.4793,1.4566,1.457,1.4572,0,1.3791,1.3852,1.3999,1.4055,1.4087,1.4156,1.4229,1.4293,1.4351,1.4363,1.4415,1.4412,1.4505,1.4444,1.4576,1.451,1.4553,1.4576,1.4582,1.4596,1.4528,1.4647,1.4838,1.4862,1.4603,1.4601,1.4599,0,1.3904,1.4023,1.4127,1.4158,1.4225,1.4275,1.4305,1.4359,1.4406,1.4471,1.4502,1.4577,1.462,1.468,1.4698,1.4651,1.4831,1.477,1.4848,1.4847,1.489,1.4888,1.5095,1.491,1.491,1.491,1.4909,0,1.4063,1.4155,1.4179,1.4243,1.4347,1.4354,1.4457,1.4485,1.4533,1.4605,1.4594,1.4663,1.4681,1.4754,1.4768,1.4877,1.4895,1.4911,1.4915,1.4915,1.4914,1.4947,1.4939,1.4915,1.4914,1.4913,1.4912,0,1.4209,1.4227,1.4341,1.4394,1.441,1.4484,1.4532,1.4596,1.4616,1.4708,1.473,1.4765,1.485,1.4873,1.4975,1.4985,1.5115,1.5107,1.5095,1.5096,1.5174,1.5168,1.5413,1.5447,1.5236,1.5238,1.524,0,1.4312,1.4382,1.4443,1.4489,1.4521,1.4596,1.4643,1.4654,1.4705,1.4776,1.4832,1.4915,1.4982,1.512,1.5156,1.5235,1.5232,1.5312,1.5244,1.5242,1.5238,1.5236,1.5245,1.5327,1.5329,1.5331,1.5332,0,1.4494,1.4499,1.4567,1.4638,1.4695,1.4752,1.4807,1.4847,1.4865,1.4923,1.5009,1.5061,1.5165,1.5249,1.5329,1.5364,1.5354,1.5353,1.5376,1.5379,1.537,1.538,1.5135,1.5348,1.5347,1.5346,1.5345,1.5344,1.4624,1.4686,1.4739,1.4816,1.4857,1.4909,1.4972,1.5,1.5071,1.5155,1.5157,1.5251,1.5309,1.5414,1.5454,1.553,1.5506,1.5538,1.5547,1.5556,1.5565,1.5354,1.5544,1.5543,1.5543,1.5543,1.5542,0,1.4809,1.4842,1.4911,1.4988,1.5049,1.5029,1.5089,1.5143,1.5225,1.5278,1.5344,1.5444,1.5525,1.5567,1.5649,1.5702,1.5699,1.5724,1.5722,1.5731,1.5579,1.5553,1.5724,1.5724,1.5724,1.5724,1.5724,1.5724,1.4913,1.5018,1.503,1.5158,1.519,1.5281,1.5317,1.5366,1.5409,1.552,1.5587,1.5612,1.5662,1.5747,1.5822,1.5833,1.5865,1.5893,1.5902,1.576,1.5741,1.5724,1.57,1.5899,1.5899,1.6048,1.6049,1.605]},{"header":{"parameterUnit":"m.s-1","parameterCategory":1,"la1":30.2991,"la2":30.254,"lo1":-89.0895,"lo2":-89.0444,"dy":0.0017,"dx":0.0017,"nx":28,"ny":28,"refTime":"2023-07-28T21:00:00:Z","depth":0,"parameterNumber":3,"parameterNumberName":"V-component_of_WINDS"},"data":[0,0,0,0,0,0,0,0,0,0,0,0,0,0,0,0,0,0,0,0,0,0,0,0,0,0,0,0,0,0,0,0,0,0,0,0,0,0,0,0,0,0,0,0,0,0,0,0,0,0,0,0,0,0,0,0,0,0,1.1453,1.1454,0,1.1572,1.1573,1.1574,1.158,1.1578,1.1577,1.1575,1.1695,1.17,1.1704,0,0,0,0,0,0,0,0,0,0,0,0,0,1.1223,1.1228,1.1453,1.1454,1.1456,1.1572,1.1573,1.1575,1.158,1.1578,1.1576,1.1575,1.1694,1.1699,1.1704,0,0,0,0,0,0,0,0,0,0,0,0,0,1.1331,1.1229,1.1452,1.1472,1.1475,1.1571,1.1573,1.1575,1.158,1.1578,1.1576,1.1574,1.1692,1.1698,1.1705,1.1789,0,0,1.1726,1.1729,0,0,0,0,0,0,0,0,1.1325,1.1339,1.1468,1.1471,1.1474,1.1559,1.1536,1.1647,1.1581,1.154,1.1575,1.1573,1.1651,1.1661,1.1688,1.1795,1.18,1.1726,1.173,1.1733,1.1735,0,0,0,0,0,0,0,1.1317,1.1334,1.15,1.1469,1.1474,1.1473,1.1486,1.1557,1.1606,1.1544,1.1544,1.1558,1.1653,1.1682,1.1691,1.1801,1.1726,1.1732,1.1736,1.1739,1.1976,1.1978,0,0,0,0,0,0,1.1307,1.1328,1.1496,1.1503,1.1393,1.1479,1.1493,1.1534,1.1605,1.1614,1.156,1.1558,1.1671,1.1683,1.1695,1.1794,1.1733,1.174,1.1743,1.1974,1.1976,1.1979,0,0,0,0,0,0,1.1302,1.1322,1.1491,1.1416,1.1437,1.1485,1.153,1.1537,1.1566,1.1618,1.1626,1.1581,1.167,1.1686,1.1764,1.1798,1.1743,1.1749,1.1971,1.1975,1.1978,1.1994,0,0,0,0,0,0,1.1295,1.132,1.1354,1.1417,1.1441,1.156,1.1533,1.1541,1.1578,1.1577,1.164,1.1648,1.167,1.1754,1.1771,1.1807,1.1754,1.1968,1.1973,1.1977,1.1991,1.1998,1.2004,0,0,0,0,0,1.1287,1.1355,1.1356,1.1376,1.1485,1.1562,1.1576,1.16,1.1581,1.1614,1.1646,1.1646,1.1792,1.1762,1.1781,1.1819,1.1966,1.1971,1.1976,1.1988,1.1997,1.2004,0,0,0,0,0,0,1.1295,1.1363,1.1365,1.1456,1.1503,1.1563,1.1606,1.1609,1.1663,1.1659,1.1686,1.17,1.1777,1.1806,1.1772,1.1901,1.1877,1.1886,1.1879,1.1888,1.1894,1.1884,1.176,0,0,0,0,0,1.1308,1.1366,1.1422,1.1496,1.152,1.1558,1.1593,1.1607,1.1657,1.1677,1.1715,1.1762,1.1818,1.1855,1.191,1.1995,1.2007,1.203,1.2037,1.2042,1.2049,1.2091,1.2101,1.1996,1.1995,1.1995,0,0,1.1334,1.1378,1.1414,1.1499,1.1537,1.1594,1.1576,1.1638,1.168,1.1686,1.1762,1.1791,1.1845,1.1926,1.1964,1.1953,1.208,1.2048,1.2052,1.2056,1.2097,1.2107,1.2116,1.1999,1.1998,1.1998,0,0,1.141,1.1452,1.1515,1.1553,1.1611,1.1636,1.1651,1.1709,1.1729,1.1805,1.1809,1.1858,1.1956,1.1993,1.2024,1.2108,1.2108,1.2126,1.2159,1.2199,1.2208,1.2215,1.2241,1.2251,1.2133,1.2133,1.2133,0,1.1435,1.1523,1.1548,1.1609,1.1644,1.1652,1.1714,1.175,1.1822,1.1845,1.1832,1.1951,1.1988,1.2075,1.2095,1.2122,1.2137,1.2118,1.2205,1.2212,1.222,1.2245,1.2255,1.2134,1.2134,1.2134,1.2134,0,1.1549,1.1609,1.1654,1.1722,1.1762,1.1824,1.1855,1.1893,1.1902,1.1927,1.2001,1.2046,1.2107,1.2129,1.214,1.2217,1.2207,1.22,1.2175,1.2231,1.2254,1.2265,1.2136,1.2136,1.2135,1.2135,0,0,1.1636,1.1714,1.173,1.1758,1.1821,1.1867,1.1927,1.1986,1.2016,1.2065,1.2113,1.2193,1.2184,1.2219,1.2234,1.227,1.2328,1.2256,1.2258,1.2265,1.241,1.2414,1.2425,1.2329,1.2331,1.2332,1.2404,0,1.1716,1.1825,1.1846,1.1938,1.1992,1.1997,1.2049,1.2091,1.2114,1.2161,1.2187,1.2242,1.2228,1.2249,1.2285,1.2313,1.2357,1.2309,1.2371,1.2373,1.2355,1.2438,1.2444,1.2509,1.2414,1.2415,1.2417,0,1.1826,1.1875,1.1973,1.2023,1.2046,1.2092,1.2146,1.2192,1.2237,1.2252,1.2289,1.2298,1.2357,1.233,1.2409,1.2376,1.2402,1.2419,1.2422,1.2428,1.2397,1.2442,1.2531,1.254,1.2432,1.2431,1.243,0,1.1874,1.1966,1.2034,1.206,1.2121,1.2152,1.2179,1.2223,1.2256,1.2302,1.2323,1.2376,1.2404,1.2443,1.2464,1.2444,1.254,1.2517,1.2551,1.255,1.257,1.2568,1.2662,1.2591,1.2591,1.2591,1.2591,0,1.1961,1.2019,1.2056,1.2099,1.2163,1.2185,1.2247,1.2273,1.2311,1.2356,1.2365,1.2406,1.2433,1.2478,1.2495,1.2555,1.2569,1.2579,1.2583,1.2577,1.2575,1.2594,1.2589,1.2594,1.2593,1.2593,1.2592,0,1.2026,1.2054,1.2129,1.2179,1.2193,1.2238,1.228,1.2319,1.2342,1.2398,1.2412,1.2447,1.2499,1.2525,1.259,1.2601,1.2668,1.267,1.2653,1.2653,1.2685,1.268,1.2792,1.2806,1.2728,1.2729,1.273,0,1.2079,1.2123,1.2178,1.2208,1.2235,1.2285,1.2318,1.234,1.2373,1.2426,1.2458,1.251,1.2554,1.2636,1.2666,1.2714,1.2716,1.2751,1.2723,1.2714,1.2712,1.2708,1.271,1.2756,1.2756,1.2757,1.2757,0,1.2167,1.2177,1.2225,1.2275,1.2314,1.2355,1.2396,1.242,1.2448,1.2484,1.2537,1.2571,1.2635,1.2686,1.2736,1.276,1.2762,1.2766,1.2776,1.277,1.2756,1.276,1.2663,1.2763,1.2763,1.2762,1.2762,1.2762,1.2225,1.2263,1.2306,1.2357,1.2389,1.2426,1.2463,1.2489,1.2535,1.2589,1.2599,1.2654,1.2694,1.2761,1.2787,1.2828,1.282,1.2836,1.2839,1.2842,1.2842,1.2751,1.2838,1.2838,1.2838,1.2838,1.2838,0,1.2311,1.2338,1.2384,1.2439,1.2478,1.2477,1.252,1.2552,1.2601,1.2638,1.2679,1.2738,1.2785,1.2818,1.2865,1.2892,1.2893,1.2903,1.29,1.2905,1.2848,1.2833,1.2901,1.2901,1.2901,1.2901,1.2901,1.2901,1.236,1.2423,1.2437,1.2514,1.254,1.2595,1.2619,1.2651,1.268,1.2745,1.2784,1.2805,1.2839,1.2888,1.293,1.2938,1.2954,1.2964,1.2971,1.2917,1.291,1.2903,1.2889,1.2968,1.2968,1.3024,1.3024,1.3025]}]]